Find Starlink 1655

NORAD ID: 47623 Int'l Des: 2021-012 Owner: SPXS Country: US Constellation: starlink operational
LEOCIRCULAR

リアルタイム位置

3D地球を読み込み中...

Starlink 1655について

説明を読み込み中...

次回通過

Passes for default location (London). Set your location on the main map for personalized predictions.

高度履歴

Loading altitude history...

軌道要素

1 47623U 21012D 26124.16668980 .00158522 00000-0 93616-3 0 9998
2 47623 53.0362 51.5126 0009140 111.0815 61.9176 15.77115584 5968
Epoch: May 4, 2026 • Age: 6 hours

現在のステータス

高度 339.2 km
速度 7.72 km/s
衛星直下点 53.18°N, 133.63°E
打ち上げ日 Feb 16, 2021
運用期間 5.2 years
タイプ internet

技術仕様

分類 Payload
質量 260.00 kg
乾燥質量 248.00 kg
総質量 260.00 kg
長さ 0.20 m
直径 2.80 m
スパン 9.00 m
形状 Box + pan
製造者 SPXS
バスタイプ Starlink
フェーズステータス In Orbit
所有者/国 SPXS/US

Most Searched